Regional Weather Roundup
Issued by NWS

Home | Current Version | Previous Version | Graphics & Text | Print | Product List | Glossary On
Versions: 1 2 3 4 5 6 7 8 9 10 11 12 13 14 15 16 17 18 19 20 21 22 23 24 25 26 27 28 29 30 31 32 33 34 35 36 37 38 39 40 41 42 43 44 45 46 47 48 49 50
204
ASUS44 KLIX 271211
RWRLA
LOUISIANA WEATHER ROUNDUP
NATIONAL WEATHER SERVICE NEW ORLEANS LA
700 AM CDT FRI MAR 27 2015

NOTE: "FAIR" INDICATES FEW OR NO CLOUDS BELOW 12,000 FEET WITH NO
      SIGNIFICANT WEATHER AND/OR OBSTRUCTIONS TO VISIBILITY.
      SKY/WX - SKY CONDITION AND SIGNIFICANT WEATHER.
      TMP - AIR TEMPERATURE.    DP   - DEWPOINT TEMPERATURE.
      RH  - RELATIVE HUMIDITY.  PRES - PRESSURE.
      HX  - HEAT INDEX.         WCI  - WIND CHILL INDEX.

*  THESE STATIONS ARE NOT NWS OR FAA STATIONS AND ARE NOT UNDER
   NWS QUALITY CONTROL.

LAZ040-048-061>063-065-066-069-271300-
SOUTHEAST LOUISIANA

CITY           SKY/WX    TMP DP  RH WIND       PRES   REMARKS
N.O. AUDUBON     N/A     53  50  91 MISG        N/A
6HR MIN TEMP:  53; 6HR MAX TEMP:  59;

N.O. INTL ARPT PTCLDY    51  43  74 N13       30.02R
6HR MIN TEMP:  52; 6HR MAX TEMP:  59;

N.O. LAKEFRONT CLOUDY    55  47  74 N20G26    30.02R
6HR MIN TEMP:  55; 6HR MAX TEMP:  61;

SLIDELL        CLOUDY    51  45  79 N6        30.00R
6HR MIN TEMP:  51; 6HR MAX TEMP:  57;

BATON ROUGE    CLEAR     45  39  79 NW3       30.05R
6HR MIN TEMP:  45; 6HR MAX TEMP:  54;

BOOTHVILLE     CLOUDY    56  51  84 NW17      29.97R
6HR MIN TEMP:  56; 6HR MAX TEMP:  66;

BELLE CHASSE   CLOUDY    54  45  71 N12G22    30.00R
6HR MIN TEMP:  54; 6HR MAX TEMP:  60;

BOGALUSA*        N/A     49  42  76 N7        30.03R
6HR MIN TEMP:  49; 6HR MAX TEMP:  56;

GALLIANO*      CLOUDY    55  48  77 N16G22    30.02R
6HR MIN TEMP:  51; 6HR MAX TEMP:  59;

NEW ROADS*     FAIR      46  39  76 NW5       30.06S
6HR MIN TEMP:  46; 6HR MAX TEMP:  54;

GONZALES*      FAIR      47  45  91 NW5       30.05R
6HR MIN TEMP:  47; 6HR MAX TEMP:  56;

HAMMOND*       CLEAR     48  41  76 NW5       30.05R
HOUMA*         MOCLDY    52  48  87 N7        30.03R
PORT FOURCHON* CLOUDY    55  48  76 N20G26    30.04R

$$

LAZ041-044-053-054-271300-
SOUTHWEST LOUISIANA

CITY           SKY/WX    TMP DP  RH WIND       PRES   REMARKS
LAKE CHARLES   CLEAR     45  43  93 CALM      30.10R
6HR MIN TEMP:  45; 6HR MAX TEMP:  56;

LAFAYETTE      CLEAR     47  41  80 N6        30.07R
6HR MIN TEMP:  47; 6HR MAX TEMP:  56;

PATTERSON      CLEAR     50  39  66 N8        30.06R
6HR MIN TEMP:  50; 6HR MAX TEMP:  55;

SALT POINT       N/A     49  45  86 N6        30.05R
6HR MIN TEMP:  49; 6HR MAX TEMP:  57; 6HR PCP:  0.09;

NEW IBERIA     CLEAR     46  41  82 N5        30.08R
6HR MIN TEMP:  46; 6HR MAX TEMP:  56; 6HR PCP: TRACE;

CHENAULT AIRPK CLEAR     46  45  93 NW8       30.10S

$$

LAZ027-028-271300-
CENTRAL LOUISIANA

CITY           SKY/WX    TMP DP  RH WIND       PRES   REMARKS
FORT POLK      CLEAR     42  42  98 NW1       30.09R
6HR MIN TEMP:  42; 6HR MAX TEMP:  49;

ALEXANDRIA INT CLEAR     40  40 100 W3        30.09R
6HR MIN TEMP:  40; 6HR MAX TEMP:  51;

ALEXANDRIA     CLEAR     39  39 100 W3        30.09R
6HR MIN TEMP:  39; 6HR MAX TEMP:  50;


$$

LAZ001-002-271300-
NORTHWEST LOUISIANA

CITY           SKY/WX    TMP DP  RH WIND       PRES   REMARKS
SHREVEPORT     PTCLDY    42  36  79 NW3       30.10R
6HR MIN TEMP:  39; 6HR MAX TEMP:  51;

BARKSDALE AFB  CLEAR     42  40  91 CALM      30.11R
6HR MIN TEMP:  38; 6HR MAX TEMP:  46;

DTN SHREVEPORT CLEAR     39  35  86 CALM      30.11R
6HR MIN TEMP:  38; 6HR MAX TEMP:  50;


$$

LAZ014-016-271300-
NORTHEAST LOUISIANA

CITY           SKY/WX    TMP DP  RH WIND       PRES   REMARKS
MONROE         FOG       42  42 100 CALM      30.11R VSB 1/2
6HR MIN TEMP:  37; 6HR MAX TEMP:  45;

TALLULAH       CLEAR     40  36  86 NW5       30.08R
6HR MIN TEMP:  40; 6HR MAX TEMP:  49; 6HR PCP: TRACE;


$$




USA.gov is the U.S. government's official web portal to all federal, state and local government web resources and services.